User: anonymous   Login
Location: Unspecified
(0.0000°N, 0.0000°E)
Time: 00:12:16
(UTC+00:00)
Language:

Kiku-3 - Orbit

View from above orbital plane
View from above orbital plane
View from above satellite
View from above satellite

Ground track
Ground track

The orbit data is extracted from the following two-line orbital elements,

1 12295U 81012A   18265.55556424 +.00000867 +00000-0 +14948-3 0  9999
2 12295 028.4417 111.4079 5025008 316.5865 013.2963 05.56975669479231
Epoch (UTC): 22 September 2018 13:20:00
Eccentricity: 0.5025008
inclination: 28.4417°
perigee height: 310 km
apogee height: 13820 km
right ascension of ascending node: 111.4079°
argument of perigee: 316.5865°
revolutions per day: 5.56975669
mean anomaly at epoch: 13.2963°
orbit number at epoch: 47923

The dashed part of the orbit path shows where the satellite is in the earth's shadow,  

DLR